Terug naar catalogus

FENGYUN 1C DEB

ActiefSSO
NORAD 30118·DEBRIS·🇨🇳 China

Gelanceerd May 10, 1999 vanaf Taiyuan Satellite Launch Center

Loading…

Volgende Passages (komende 24 uur)

TLE

VersSource: Space-Track

Epoch: Sep 14, 2026, 06:39 UTC

1 30118U 99025RX  26257.27744536  .00000092  00000-0  81133-4 0  9999
2 30118  98.8098 258.0695 0084564   7.7139   4.9214 14.05220524  7996

Volg FENGYUN 1C DEB in realtime met AllMySat

Download on the App Store